GW3881 Weather Reports


time (UTC)temp
C
wind
direction
speed
KPH
gust
KPH
rain 1hr
cm
rain 24hr
cm
rain mn
cm
humidity
%
barometer
mb
20260503010111 13 262 8.0 9.7 0.00 0.00 0.00 39 1233.4
20260503005608 13 264 3.2 3.2 0.00 0.00 0.00 38 1233.4
20260503005105 13 246 6.4 8.0 0.00 0.00 0.00 37 1233.4
20260503004601 13 243 3.2 4.8 0.00 0.00 0.00 37 1233.4
20260503004100 14 252 4.8 4.8 0.00 0.00 0.00 37 1233.4
20260503003556 15 257 8.0 9.7 0.00 0.00 0.00 35 1233.4
20260503003053 15 247 11.3 12.9 0.00 0.00 0.00 34 1233.4
20260503002550 15 298 8.0 9.7 0.00 0.00 0.00 35 1233.4
20260503002047 15 270 8.0 9.7 0.00 0.00 0.00 34 1233.4
20260503001543 15 267 4.8 8.0 0.00 0.00 0.00 34 1233.4
20260503001041 15 238 3.2 4.8 0.00 0.00 0.00 33 1233.4
20260503000538 15 278 9.7 12.9 0.00 0.00 0.00 34 1233.4
20260503000035 15 248 8.0 16.1 0.00 0.00 0.00 33 1233.4
20260502235531 15 280 12.9 17.7 0.00 0.00 0.00 33 1233.4
20260502235029 15 249 6.4 8.0 0.00 0.00 0.00 33 1233.4
20260502234525 15 264 1.6 3.2 0.00 0.00 0.00 33 1233.4
20260502234023 15 273 12.9 16.1 0.00 0.00 0.00 32 1233.4
20260502233518 15 268 9.7 9.7 0.00 0.00 0.00 32 1233.4
20260502233015 15 274 9.7 12.9 0.00 0.00 0.00 32 1233.4
20260502232511 15 232 6.4 9.7 0.00 0.00 0.00 32 1233.4
20260502232008 15 250 9.7 12.9 0.00 0.00 0.00 32 1233.4
20260502231505 15 261 8.0 9.7 0.00 0.00 0.00 32 1233.4
20260502231004 16 276 8.0 9.7 0.00 0.00 0.00 32 1233.4
20260502230501 16 251 14.5 20.9 0.00 0.00 0.00 31 1233.4
20260502230000 16 253 6.4 9.7 0.00 0.00 0.00 31 1233.4
20260502225455 15 278 6.4 9.7 0.00 0.00 0.00 31 1233.4
20260502224952 15 282 16.1 20.9 0.00 0.00 0.00 31 1233.4
20260502224448 16 256 6.4 8.0 0.00 0.00 0.00 31 1233.4
20260502223945 16 257 14.5 17.7 0.00 0.00 0.00 29 1233.4
20260502223443 16 262 6.4 9.7 0.00 0.00 0.00 30 1233.4
20260502222941 16 271 9.7 12.9 0.00 0.00 0.00 30 1233.4
20260502222438 16 262 11.3 16.1 0.00 0.00 0.00 33 1233.4
20260502221934 16 288 6.4 8.0 0.00 0.00 0.00 31 1233.4
20260502221430 16 276 16.1 20.9 0.00 0.00 0.00 30 1233.4
20260502220927 16 280 9.7 12.9 0.00 0.00 0.00 31 1233.4
20260502220423 16 276 20.9 25.7 0.00 0.00 0.00 30 1233.4
20260502215920 16 262 9.7 12.9 0.00 0.00 0.00 30 1233.4
20260502215417 16 289 11.3 16.1 0.00 0.00 0.00 30 1233.4
20260502214914 16 269 6.4 8.0 0.00 0.00 0.00 33 1233.4
20260502214411 16 261 4.8 9.7 0.00 0.00 0.00 31 1233.4
20260502213908 16 247 6.4 9.7 0.00 0.00 0.00 32 1233.4
20260502213405 16 248 12.9 16.1 0.00 0.00 0.00 29 1233.4
20260502212904 17 299 14.5 17.7 0.00 0.00 0.00 30 1233.4
20260502212402 17 260 9.7 12.9 0.00 0.00 0.00 29 1233.4
20260502211859 17 265 3.2 4.8 0.00 0.00 0.00 29 1233.4
20260502211359 16 255 4.8 4.8 0.00 0.00 0.00 33 1233.4
20260502210857 16 237 11.3 16.1 0.00 0.00 0.00 28 1233.4
20260502210354 16 240 6.4 8.0 0.00 0.00 0.00 30 1233.4
20260502205852 16 295 8.0 9.7 0.00 0.00 0.00 30 1233.4
20260502205347 16 287 12.9 17.7 0.00 0.00 0.00 28 1233.4
20260502204845 16 275 6.4 8.0 0.00 0.00 0.00 29 1233.4
20260502204342 16 279 12.9 17.7 0.00 0.00 0.00 28 1233.4
20260502203839 16 264 11.3 12.9 0.00 0.00 0.00 31 1233.4
20260502203337 17 269 11.3 16.1 0.00 0.00 0.00 30 1233.4
20260502202832 16 263 1.6 3.2 0.00 0.00 0.00 31 1233.4
20260502202330 16 262 16.1 22.5 0.00 0.00 0.00 30 1233.4
20260502201827 16 251 4.8 9.7 0.00 0.00 0.00 29 1233.4
20260502201323 15 288 6.4 8.0 0.00 0.00 0.00 33 1233.4
20260502200820 16 236 17.7 22.5 0.00 0.00 0.00 29 1233.4
20260502200315 16 167 6.4 8.0 0.00 0.00 0.00 29 1233.4
20260502195814 15 259 8.0 9.7 0.00 0.00 0.00 33 1233.4
20260502195310 16 293 3.2 4.8 0.00 0.00 0.00 29 1233.4
20260502194807 15 283 14.5 20.9 0.00 0.00 0.00 31 1233.4
20260502194304 15 312 9.7 12.9 0.00 0.00 0.00 32 1233.4
20260502193759 16 206 8.0 9.7 0.00 0.00 0.00 28 1233.4
20260502193257 15 275 8.0 12.9 0.00 0.00 0.00 28 1233.4
20260502192757 15 222 9.7 16.1 0.00 0.00 0.00 32 1233.4
20260502192255 15 259 12.9 17.7 0.00 0.00 0.00 32 1233.4
20260502191751 15 263 6.4 9.7 0.00 0.00 0.00 33 1233.4
20260502191250 15 270 4.8 12.9 0.00 0.00 0.00 31 1233.4
20260502190746 15 268 4.8 4.8 0.00 0.00 0.00 31 1233.4
20260502190244 15 302 11.3 16.1 0.00 0.00 0.00 30 1233.4
20260502185744 15 261 1.6 4.8 0.00 0.00 0.00 34 1233.4
20260502185241 15 266 6.4 9.7 0.00 0.00 0.00 31 1233.4
20260502184737 15 246 6.4 9.7 0.00 0.00 0.00 33 1233.4
20260502184233 15 313 4.8 8.0 0.00 0.00 0.00 31 1233.4
20260502183730 15 314 14.5 20.9 0.00 0.00 0.00 30 1233.4
20260502183226 15 181 6.4 9.7 0.00 0.00 0.00 31 1233.4
20260502182721 15 290 9.7 9.7 0.00 0.00 0.00 35 1233.4
20260502182217 15 270 6.4 8.0 0.00 0.00 0.00 31 1233.4
20260502181714 15 184 3.2 4.8 0.00 0.00 0.00 29 1233.4
20260502181214 14 258 4.8 8.0 0.00 0.00 0.00 31 1233.4
20260502180710 14 289 8.0 9.7 0.00 0.00 0.00 32 1233.4
20260502180208 14 282 4.8 8.0 0.00 0.00 0.00 35 1233.4
20260502170132 13 302 6.4 9.7 0.00 0.00 0.00 33 1233.4
20260502164118 13 271 1.6 3.2 0.00 0.00 0.00 35 1233.4
20260502163614 13 269 1.6 4.8 0.00 0.00 0.00 37 1233.4
20260502163111 13 204 12.9 16.1 0.00 0.00 0.00 32 1233.4
20260502162608 13 146 6.4 8.0 0.00 0.00 0.00 28 1233.4
20260502162105 13 275 12.9 17.7 0.00 0.00 0.00 32 1233.4
20260502161602 13 286 6.4 9.7 0.00 0.00 0.00 36 1233.4
20260502161059 12 318 4.8 8.0 0.00 0.00 0.00 39 1233.4
20260502160557 13 251 3.2 3.2 0.00 0.00 0.00 33 1233.4
20260502152010 12 267 4.8 8.0 0.00 0.00 0.00 43 1233.4
20260502151507 12 252 4.8 8.0 0.00 0.00 0.00 46 1233.4
20260502151004 11 256 6.4 8.0 0.00 0.00 0.00 43 1233.4
20260502150502 12 304 8.0 9.7 0.00 0.00 0.00 47 1233.4
20260502130347 5 242 0.0 0.0 0.00 0.00 0.00 80 1233.4
20260502123329 2 250 3.2 3.2 0.00 0.00 0.00 84 1233.4
20260502122826 2 249 1.6 3.2 0.00 0.00 0.00 85 1233.4
20260502122322 2 230 0.0 3.2 0.00 0.00 0.00 86 1233.4
20260502121821 1 230 0.0 3.2 0.00 0.00 0.00 86 1233.4
20260502121318 1 229 0.0 0.0 0.00 0.00 0.00 87 1233.4
20260502120815 1 229 0.0 0.0 0.00 0.00 0.00 86 1233.4
20260502120311 1 229 0.0 0.0 0.00 0.00 0.00 88 1233.4
20260502115809 1 229 0.0 0.0 0.00 0.00 0.00 88 1233.4
20260502115306 0 229 0.0 0.0 0.00 0.00 0.00 89 1233.4
20260502114802 0 229 0.0 0.0 0.00 0.00 0.00 91 1233.4
20260502114258 0 229 0.0 0.0 0.00 0.00 0.00 93 1233.4
20260502113755 -1 229 0.0 0.0 0.00 0.00 0.00 94 1233.4
20260502113253 -1 229 0.0 0.0 0.00 0.00 0.00 94 1233.4
20260502112751 -1 229 0.0 0.0 0.00 0.00 0.00 95 1233.4
20260502112249 -1 229 0.0 0.0 0.00 0.00 0.00 95 1233.4
20260502111745 -1 229 0.0 0.0 0.00 0.00 0.00 94 1233.4
20260502111243 -1 229 0.0 0.0 0.00 0.00 0.00 94 1233.4
20260502110740 -1 229 0.0 0.0 0.00 0.00 0.00 94 1233.4
20260502110238 -1 229 0.0 0.0 0.00 0.00 0.00 94 1233.4
20260502105736 -1 229 0.0 0.0 0.00 0.00 0.00 94 1233.4
20260502105232 -1 229 0.0 0.0 0.00 0.00 0.00 94 1233.4
20260502104730 -1 229 0.0 0.0 0.00 0.00 0.00 94 1233.4
20260502104227 -1 229 0.0 0.0 0.00 0.00 0.00 93 1233.4
20260502103725 -1 229 0.0 0.0 0.00 0.00 0.00 93 1233.4
20260502103222 0 229 0.0 0.0 0.00 0.00 0.00 92 1233.4
20260502102719 0 229 0.0 0.0 0.00 0.00 0.00 93 1233.4
20260502102216 0 229 0.0 0.0 0.00 0.00 0.00 93 1233.4
20260502101714 0 229 0.0 0.0 0.00 0.00 0.00 93 1233.4
20260502101212 0 229 0.0 0.0 0.00 0.00 0.00 93 1233.4
20260502100709 0 229 0.0 0.0 0.00 0.00 0.00 92 1233.4
20260502100208 0 229 0.0 0.0 0.00 0.00 0.00 92 1233.4
20260502091142 0 229 0.0 0.0 0.00 0.00 0.00 90 1233.4
20260502090639 0 229 0.0 0.0 0.00 0.00 0.00 90 1233.4
20260502090136 0 229 0.0 0.0 0.00 0.00 0.00 88 1233.4
20260502080104 3 228 0.0 0.0 0.00 0.00 0.00 75 1233.4
20260502071037 5 236 0.0 0.0 0.00 0.00 0.00 66 1233.4
20260502070535 5 358 6.4 8.0 0.00 0.00 0.00 65 1233.4
20260502070033 4 275 0.0 0.0 0.00 0.00 0.00 65 1233.4
20260502065531 4 4 6.4 8.0 0.00 0.00 0.00 64 1233.4
20260502065028 4 295 1.6 3.2 0.00 0.00 0.00 65 1233.4
20260502064527 4 345 1.6 4.8 0.00 0.00 0.00 64 1233.4
20260502064024 4 302 1.6 3.2 0.00 0.00 0.00 63 1233.4
20260502063521 5 263 0.0 0.0 0.00 0.00 0.00 65 1233.4
20260502063019 5 287 0.0 0.0 0.00 0.00 0.00 64 1233.4
20260502062516 5 241 0.0 0.0 0.00 0.00 0.00 62 1233.4
20260502062015 5 273 0.0 0.0 0.00 0.00 0.00 63 1233.4
20260502061512 5 269 0.0 3.2 0.00 0.00 0.00 60 1233.4
20260502061009 5 270 0.0 0.0 0.00 0.00 0.00 60 1233.4
20260502060503 5 271 0.0 0.0 0.00 0.00 0.00 64 1233.4
20260502060000 4 270 0.0 3.2 0.00 0.00 0.00 63 1233.4
20260502055458 4 250 0.0 0.0 0.00 0.00 0.00 66 1233.4
20260502054957 3 249 0.0 0.0 0.00 0.00 0.00 66 1233.4
20260502054455 4 247 0.0 0.0 0.00 0.00 0.00 67 1233.4
20260502053952 3 196 0.0 0.0 0.00 0.00 0.00 71 1233.4
20260502053449 2 249 0.0 0.0 0.00 0.00 0.00 77 1233.4
20260502052947 2 233 0.0 0.0 0.00 0.00 0.00 78 1233.4
20260502052445 2 233 0.0 0.0 0.00 0.00 0.00 79 1233.4
20260502051943 2 233 0.0 0.0 0.00 0.00 0.00 80 1233.4
20260502051441 2 233 0.0 0.0 0.00 0.00 0.00 80 1233.4
20260502050937 3 233 0.0 0.0 0.00 0.00 0.00 80 1233.4
20260502050434 3 233 0.0 0.0 0.00 0.00 0.00 78 1233.4
20260502045931 3 233 0.0 0.0 0.00 0.00 0.00 77 1233.4
20260502045428 3 233 0.0 0.0 0.00 0.00 0.00 75 1233.4
20260502044925 4 233 0.0 0.0 0.00 0.00 0.00 73 1233.4
20260502044420 5 237 0.0 0.0 0.00 0.00 0.00 69 1233.4
20260502043917 5 247 0.0 0.0 0.00 0.00 0.00 67 1233.4
20260502043416 5 248 0.0 0.0 0.00 0.00 0.00 66 1233.4
20260502042915 5 237 0.0 0.0 0.00 0.00 0.00 66 1233.4
20260502042413 5 240 0.0 0.0 0.00 0.00 0.00 69 1233.4
20260502041909 5 234 0.0 0.0 0.00 0.00 0.00 71 1233.4
20260502041407 4 240 0.0 0.0 0.00 0.00 0.00 74 1233.4
20260502040904 5 242 0.0 0.0 0.00 0.00 0.00 72 1233.4
20260502040400 5 260 0.0 0.0 0.00 0.00 0.00 73 1233.4
20260502035856 5 261 0.0 0.0 0.00 0.00 0.00 72 1233.4
20260502035353 5 261 0.0 0.0 0.00 0.00 0.00 65 1233.4
20260502034851 5 261 0.0 0.0 0.00 0.00 0.00 63 1233.4
20260502034349 5 261 0.0 0.0 0.00 0.00 0.00 61 1233.4
20260502033848 6 261 0.0 0.0 0.00 0.00 0.00 62 1233.4
20260502033345 6 261 0.0 0.0 0.00 0.00 0.00 61 1233.4
20260502032841 6 261 0.0 0.0 0.00 0.00 0.00 60 1233.4
20260502032337 6 262 0.0 0.0 0.00 0.00 0.00 56 1233.4
20260502031835 6 251 0.0 0.0 0.00 0.00 0.00 59 1233.4
20260502031333 6 251 0.0 0.0 0.00 0.00 0.00 59 1233.4
20260502030831 6 251 0.0 0.0 0.00 0.00 0.00 60 1233.4
20260502030329 6 251 0.0 0.0 0.00 0.00 0.00 60 1233.4
20260502025826 7 251 0.0 0.0 0.00 0.00 0.00 60 1233.4
20260502025324 7 251 0.0 0.0 0.00 0.00 0.00 54 1233.4
20260502024821 7 251 0.0 0.0 0.00 0.00 0.00 54 1233.4
20260502024319 7 251 0.0 0.0 0.00 0.00 0.00 51 1233.4
20260502023817 7 270 0.0 0.0 0.00 0.00 0.00 51 1233.4
20260502023315 7 269 0.0 0.0 0.00 0.00 0.00 51 1233.4
20260502022812 8 267 0.0 0.0 0.00 0.00 0.00 51 1233.4
20260502022308 8 273 1.6 3.2 0.00 0.00 0.00 50 1233.4
20260502021805 8 263 0.0 3.2 0.00 0.00 0.00 50 1233.4
20260502021302 8 269 0.0 3.2 0.00 0.00 0.00 49 1233.4
20260502020759 8 270 0.0 0.0 0.00 0.00 0.00 49 1233.4
20260502020257 9 257 0.0 0.0 0.00 0.00 0.00 49 1233.4
20260502015754 9 263 3.2 3.2 0.00 0.00 0.00 50 1233.4
20260502015250 9 262 1.6 3.2 0.00 0.00 0.00 50 1233.4
20260502014748 9 310 1.6 3.2 0.00 0.00 0.00 50 1233.4
20260502014245 8 282 0.0 0.0 0.00 0.00 0.00 52 1233.4
20260502013741 8 266 0.0 0.0 0.00 0.00 0.00 52 1233.4
20260502013237 9 255 0.0 0.0 0.00 0.00 0.00 52 1233.4
20260502012734 9 266 0.0 0.0 0.00 0.00 0.00 51 1233.4
20260502012232 9 269 1.6 3.2 0.00 0.00 0.00 51 1233.4
20260502011729 10 275 1.6 3.2 0.00 0.00 0.00 53 1233.4
20260502011224 10 284 0.0 3.2 0.00 0.00 0.00 55 1233.4
20260502010722 10 280 0.0 0.0 0.00 0.00 0.00 54 1233.4
20260502010218 10 284 0.0 0.0 0.00 0.00 0.00 55 1233.4